Location: Bluff Heights
(33.7692°N, 118.1592°W)
Time: 05:17:53
(UTC+00:00)

Vanguard 1 Rocket - Pass Details

Date: 26 September 2021
Orbit: 650 x 4225 km, 34.3° (Epoch: 24 October)

Event Time Altitude Azimuth Distance (km) Brightness Sun altitude
Exits shadow 12:15:57 19° 236° (SW) 4,735 10.5 -19.0°
Maximum altitude 12:21:10 22° 214° (SSW) 5,019 10.7 -17.9°
Drops below altitude 10° 12:35:50 10° 172° (S) 7,044 11.9 -14.9°
Sets 12:44:18 0° 160° (SSE) 8,383 12.5 -13.2°
